sat.trackr.live / text

‹ back to catalog

STARLINK-33665

NORAD 63281 · 2025-053S

PAYLOAD ACTIVE UNKNOWN

§ Identity

Operator
Country
US
Launch date
2025-03-15
Launch site
AFETR
Launch vehicle
Mass (kg)
RCS (m²)

Purposes: comms

External: N2YO · Heavens-Above · Gunter

§ Orbital elements

Epoch: 2026-05-25T02:08:30.241824Z

Period
94.27 min
Inclination
42.9995°
Eccentricity
0.0001190
Mean motion
15.27593390 rev/d
Perigee alt
482.2 km
Apogee alt
483.8 km
Semi-major
6,861.1 km
B*
4.5460e-4
RAAN
169.7976°
Arg perigee
268.5630°
Mean anomaly
91.5086°
Rev number
6,788

§ Raw data

STARLINK-336651 63281U 25053S   26145.08923891  .00012273  00000+0  45460-3 0  99992 63281  42.9995 169.7976 0001190 268.5630  91.5086 15.27593390 67888

JSON: /api/v1/satellites/63281 · /tle

For live sub-satellite position, see the globe view (requires WebGL).

§ Visibility from observer

Set your observer location to see the next 7 days of passes ≥ 10°. The values pass through the URL so the page stays shareable.

No JS? Fill the form by hand. The geolocation button needs JavaScript.